Location: Peebles
(55.6412°N, 3.1714°W)
Time: 11:38:35
(UTC+00:00)

CUTE-I - Pass Details

Date: 17 December 2023
Orbit: 807 x 823 km, 98.7° (Epoch: 24 February)

Event Time Altitude Azimuth Distance (km) Brightness Sun altitude
Rises 07:26:15 0° 14° (NNE) 3,371 ? -8.9°
Reaches altitude 10° 07:28:38 10° 11° (NNE) 2,435 ? -8.6°
Maximum altitude 07:33:55 59° 294° (WNW) 951 ? -8.0°
Drops below altitude 10° 07:39:11 10° 216° (SW) 2,421 ? -7.3°
Sets 07:41:33 0° 212° (SSW) 3,350 ? -7.0°
